Back to catalog

STARLINK-30244

AliveCommunicationsVLEO
NORAD 57614·PAYLOAD·🇺🇸 United States

Launched Aug 11, 2023 from Cape Canaveral Space Force Station

Loading…

Next Passes (next 24 hours)

TLE

FreshSource: CelesTrak SupGP

Epoch: Sep 14, 2026, 14:52 UTC

1 57614C 23119N   26257.61993056 -.00003048  00000+0 -11043-3 0  2575
2 57614  42.9997  94.4707 0001368 259.6120  50.3927 15.27568836    17

Track STARLINK-30244 in real time with AllMySat

Download on the App Store